Weather History for PAQT - June, 2014

Change the Weather History Date:

Tuesday, June 10, 2014

  Actual Average (PAKU) Record (PAKU)
Temperature  
Mean Temperature 34 °F -  
Max Temperature 39 °F 40 °F 66 °F (2006)
Min Temperature 30 °F 30 °F 23 °F (1986)
Degree Days  
Heating Degree Days 32    
Moisture  
Dew Point 32 °F    
Average Humidity 94    
Maximum Humidity 100    
Minimum Humidity 86    
Precipitation  
Precipitation 0.01 in - - ()
Sea Level Pressure  
Sea Level Pressure 29.99 in    
Wind  
Wind Speed 6 mph (NE)    
Max Wind Speed 12 mph    
Max Gust Speed -    
Visibility 9 miles    
Events Rain    
Averages and records for this station are not official NWS values.
T = Trace of Precipitation, MM = Missing Value Source: NWS Daily Summary

Daily Weather History Graph

Daily Weather History Graph

Search for Another Location

Airport or City:

Trip Planner

Search our weather history database for the weather conditions in past years. The results will help you decide how hot, cold, wet, or windy it might be!

Date:

Astronomy

Dec. 31, 1969 Rise Set
Actual Time Sun does not rise Sun does not rise
Civil Twilight Sun does not rise Sun does not rise
Nautical Twilight Sun does not rise Sun does not rise
Astronomical Twilight Sun does not rise Sun does not rise
Moon 10:06 PM AKDT (6/10) 2:27 AM AKDT (6/10)
Length of Visible Light 24h 00m
Length of Day
24h 00m
Waxing Gibbous, 93% of the Moon is Illuminated
Jun 10
Waxing Gibbous
Jun 12
Full
Jun 19
Last Quarter
Jun 27
New
Jul 5
First Quarter

Hourly Weather History & Observations

Time (AKDT) Temp. Windchill Dew Point Humidity Pressure Visibility Wind Dir Wind Speed Gust Speed Precip Events Conditions
12:07 AM 30.9 °F 24.3 °F 30.9 °F 100% 29.96 in 2.0 mi NE 6.9 mph - N/A   Overcast
12:12 AM 30.9 °F 25.2 °F 30.9 °F 100% 29.96 in 9.0 mi ENE 5.8 mph - N/A   Overcast
12:26 AM 30.9 °F 24.3 °F 30.9 °F 100% 29.96 in 9.0 mi ENE 6.9 mph - 0.00 in   Overcast
12:51 AM 30.2 °F 23.4 °F 30.2 °F 100% 29.96 in 10.0 mi East 6.9 mph - 0.00 in   Overcast
12:53 AM 30.9 °F 24.3 °F 30.9 °F 100% 29.96 in 10.0 mi ENE 6.9 mph - 0.00 in   Overcast
1:25 AM 30.9 °F 25.2 °F 30.9 °F 100% 29.97 in 3.0 mi ENE 5.8 mph - N/A   Overcast
1:29 AM 30.9 °F 25.2 °F 30.9 °F 100% 29.97 in 1.8 mi East 5.8 mph - N/A   Overcast
1:36 AM 30.9 °F 26.2 °F 30.9 °F 100% 29.97 in 3.0 mi ENE 4.6 mph - N/A   Overcast
1:51 AM 30.2 °F 24.3 °F 30.2 °F 100% 29.97 in 10.0 mi East 5.8 mph - N/A   Overcast
1:53 AM 30.9 °F 26.2 °F 30.9 °F 100% 29.97 in 10.0 mi East 4.6 mph - N/A   Overcast
2:53 AM 30.9 °F 25.2 °F 30.9 °F 100% 29.97 in 10.0 mi NE 5.8 mph - N/A   Overcast
3:29 AM 30.9 °F 25.2 °F 30.9 °F 100% 29.97 in 4.0 mi ENE 5.8 mph - 0.00 in   Overcast
3:37 AM 30.9 °F 25.2 °F 30.9 °F 100% 29.97 in 2.5 mi ENE 5.8 mph - 0.00 in   Overcast
3:46 AM 30.9 °F 26.2 °F 30.9 °F 100% 29.97 in 3.0 mi ENE 4.6 mph - 0.00 in   Overcast
3:53 AM 30.9 °F 26.2 °F 30.9 °F 100% 29.97 in 7.0 mi ENE 4.6 mph - 0.00 in   Overcast
4:17 AM 30.9 °F 26.2 °F 30.9 °F 100% 29.97 in 10.0 mi East 4.6 mph - 0.00 in   Overcast
4:40 AM 30.9 °F 26.2 °F 30.9 °F 100% 29.97 in 5.0 mi ENE 4.6 mph - 0.01 in Rain Light Freezing Rain
4:53 AM 30.9 °F 26.2 °F 30.9 °F 100% 29.98 in 8.0 mi East 4.6 mph - 0.01 in Rain Light Freezing Rain
5:06 AM 30.9 °F 25.2 °F 30.9 °F 100% 29.97 in 10.0 mi East 5.8 mph - 0.00 in   Overcast
5:53 AM 30.9 °F 24.3 °F 30.9 °F 100% 29.97 in 10.0 mi ENE 6.9 mph - 0.00 in   Overcast
6:53 AM 32.0 °F 27.5 °F 32.0 °F 100% 29.97 in 10.0 mi East 4.6 mph - N/A   Overcast
7:53 AM 33.1 °F 28.7 °F 30.9 °F 92% 29.97 in 10.0 mi East 4.6 mph - N/A   Overcast
8:53 AM 33.1 °F 27.7 °F 32.0 °F 96% 29.97 in 10.0 mi ENE 5.8 mph - N/A   Overcast
9:51 AM 33.8 °F 30.8 °F 32.0 °F 93% 29.98 in 10.0 mi East 3.5 mph - N/A   Overcast
9:53 AM 34.0 °F 31.0 °F 32.0 °F 92% 29.98 in 10.0 mi East 3.5 mph - N/A   Overcast
10:00 AM 34.0 °F 31.0 °F 32.0 °F 92% 29.98 in 10.0 mi ESE 3.5 mph - N/A   Overcast
10:53 AM 36.0 °F 32.1 °F 33.1 °F 89% 29.99 in 10.0 mi NNE 4.6 mph - N/A   Overcast
11:53 AM 36.0 °F 32.1 °F 33.1 °F 89% 29.99 in 10.0 mi NNE 4.6 mph - N/A   Overcast
12:24 PM 37.0 °F 33.3 °F 33.1 °F 86% 29.99 in 10.0 mi NNE 4.6 mph - N/A   Overcast
12:53 PM 37.0 °F 31.6 °F 33.1 °F 86% 30.00 in 10.0 mi NNE 6.9 mph - N/A   Overcast
1:53 PM 37.9 °F 33.5 °F 34.0 °F 86% 30.01 in 10.0 mi North 5.8 mph - N/A   Overcast
2:35 PM 36.0 °F 28.0 °F 33.1 °F 89% 30.01 in 10.0 mi NNE 11.5 mph - N/A   Overcast
2:53 PM 36.0 °F 28.0 °F 33.1 °F 89% 30.02 in 10.0 mi NNE 11.5 mph - N/A   Overcast
3:53 PM 37.0 °F 31.0 °F 34.0 °F 89% 30.02 in 10.0 mi NE 8.1 mph - N/A   Overcast
4:53 PM 37.0 °F 31.0 °F 34.0 °F 89% 30.02 in 10.0 mi NNE 8.1 mph - N/A   Overcast
5:53 PM 37.9 °F 33.5 °F 34.0 °F 86% 30.02 in 10.0 mi NNE 5.8 mph - N/A   Overcast
6:09 PM 37.9 °F 33.5 °F 34.0 °F 86% 30.02 in 10.0 mi NNE 5.8 mph - N/A   Overcast
6:53 PM 37.9 °F 33.5 °F 34.0 °F 86% 30.03 in 10.0 mi NE 5.8 mph - N/A   Overcast
7:53 PM 37.9 °F 32.7 °F 34.0 °F 86% 30.03 in 10.0 mi NNE 6.9 mph - N/A   Overcast
8:50 PM 35.6 °F 29.2 °F 33.8 °F 93% 30.02 in 10.0 mi North 8.1 mph - N/A   Overcast
8:53 PM 36.0 °F 29.0 °F 33.1 °F 89% 30.03 in 10.0 mi NNE 9.2 mph - N/A   Overcast
9:53 PM 35.1 °F 28.6 °F 33.1 °F 92% 30.03 in 10.0 mi NNE 8.1 mph - N/A   Overcast
10:53 PM 35.1 °F 28.6 °F 33.1 °F 92% 30.05 in 10.0 mi North 8.1 mph - N/A   Overcast
11:39 PM 34.0 °F 26.6 °F 32.0 °F 92% 30.05 in 10.0 mi NNE 9.2 mph - N/A   Overcast
11:51 PM 33.8 °F 27.0 °F 32.0 °F 93% 30.05 in 10.0 mi NNE 8.1 mph - N/A   Overcast
11:53 PM 34.0 °F 27.2 °F 32.0 °F 92% 30.05 in 10.0 mi NNE 8.1 mph - N/A   Overcast